EN

Hourly Weather Allstedt

Today, 22 January, Friday

Time Temperature Precipitation Wind Pressure Humidity
00:00 +5°C° 0.1 mm 8 mps 732 mmHg 83%
01:00 +6°C° 0.1 mm 10 mps 731 mmHg 82%
02:00 +6°C° 0 mm 10 mps 731 mmHg 81%
03:00 +6°C° 0 mm 10 mps 730 mmHg 79%
04:00 +6°C° 0 mm 10 mps 730 mmHg 78%
05:00 +5°C° 0 mm 9 mps 729 mmHg 78%
06:00 +5°C° 0 mm 9 mps 729 mmHg 79%
07:00 +5°C° 0 mm 8 mps 729 mmHg 79%
08:00 +5°C° 0.1 mm 8 mps 729 mmHg 79%
09:00 +5°C° 0.1 mm 8 mps 729 mmHg 78%
10:00 +6°C° 0.1 mm 8 mps 729 mmHg 78%
11:00 +5°C° 0.3 mm 7 mps 730 mmHg 79%
12:00 +5°C° 0.3 mm 5 mps 730 mmHg 81%
13:00 +4°C° 0.3 mm 4 mps 731 mmHg 82%
14:00 +4°C° 0 mm 3 mps 731 mmHg 82%
15:00 +5°C° 0 mm 2 mps 731 mmHg 81%
16:00 +5°C° 0 mm 2 mps 731 mmHg 81%
17:00 +5°C° 0 mm 1 mps 731 mmHg 83%
18:00 +5°C° 0 mm 1 mps 732 mmHg 84%
19:00 +3°C° 0 mm 0 mps 732 mmHg 86%
20:00 +3°C° 0 mm 0 mps 732 mmHg 86%
21:00 +4°C° 0 mm 1 mps 732 mmHg 86%
22:00 +4°C° 0 mm 1 mps 733 mmHg 86%
23:00 +4°C° 0 mm 1 mps 733 mmHg 85%

Tomorrow, 23 January, Saturday

Time Temperature Precipitation Wind Pressure Humidity
00:00 +4°C° 0 mm 1 mps 733 mmHg 85%
01:00 +4°C° 0 mm 1 mps 733 mmHg 85%
02:00 +2°C° 0.1 mm 2 mps 732 mmHg 87%
03:00 +2°C° 0.1 mm 2 mps 732 mmHg 89%
04:00 +2°C° 0.1 mm 2 mps 732 mmHg 91%
05:00 +2°C° 0.5 mm 2 mps 732 mmHg 93%
06:00 +1°C° 0.5 mm 3 mps 732 mmHg 94%
07:00 0°C° 0.5 mm 3 mps 732 mmHg 96%
08:00 0°C° 0.4 mm 3 mps 732 mmHg 96%
09:00 0°C° 0.4 mm 3 mps 732 mmHg 96%
10:00 0°C° 0.4 mm 3 mps 732 mmHg 96%
11:00 +1°C° 0.1 mm 3 mps 732 mmHg 92%
12:00 +2°C° 0.1 mm 3 mps 732 mmHg 88%
13:00 +2°C° 0.1 mm 3 mps 733 mmHg 85%
14:00 +3°C° 0.1 mm 2 mps 732 mmHg 85%
15:00 +3°C° 0.1 mm 2 mps 732 mmHg 84%
16:00 +4°C° 0.1 mm 1 mps 732 mmHg 84%
17:00 +3°C° 0 mm 1 mps 733 mmHg 86%
18:00 +2°C° 0 mm 1 mps 733 mmHg 88%
19:00 +1°C° 0 mm 1 mps 733 mmHg 90%
20:00 +1°C° 0 mm 1 mps 733 mmHg 90%
21:00 +1°C° 0 mm 1 mps 733 mmHg 89%
22:00 +1°C° 0 mm 1 mps 733 mmHg 89%
23:00 +1°C° 0 mm 1 mps 733 mmHg 88%

Day after tomorrow, 24 January, Sunday

Time Temperature Precipitation Wind Pressure Humidity
00:00 +1°C° 0 mm 1 mps 733 mmHg 88%
01:00 -1°C° 0 mm 2 mps 733 mmHg 87%
02:00 +1°C° 0 mm 1 mps 733 mmHg 88%
03:00 +1°C° 0 mm 1 mps 733 mmHg 89%
04:00 +1°C° 0 mm 1 mps 733 mmHg 90%
05:00 +1°C° 0 mm 1 mps 733 mmHg 90%
06:00 +1°C° 0 mm 1 mps 733 mmHg 90%
07:00 +1°C° 0 mm 1 mps 733 mmHg 90%
08:00 +1°C° 0 mm 2 mps 733 mmHg 90%
09:00 +1°C° 0 mm 2 mps 734 mmHg 89%
10:00 +1°C° 0 mm 2 mps 734 mmHg 89%
11:00 +1°C° 0.1 mm 3 mps 734 mmHg 87%
12:00 +1°C° 0.1 mm 3 mps 734 mmHg 85%
13:00 0°C° 0.1 mm 4 mps 734 mmHg 83%
14:00 +1°C° 0 mm 3 mps 734 mmHg 82%
15:00 +1°C° 0 mm 3 mps 734 mmHg 82%
16:00 +1°C° 0 mm 3 mps 735 mmHg 81%
17:00 +1°C° 0 mm 2 mps 735 mmHg 83%
18:00 -1°C° 0 mm 2 mps 735 mmHg 86%
19:00 -2°C° 0 mm 2 mps 736 mmHg 88%
20:00 -2°C° 0 mm 2 mps 736 mmHg 88%
21:00 -2°C° 0 mm 2 mps 736 mmHg 89%
22:00 -2°C° 0 mm 2 mps 737 mmHg 89%
23:00 -2°C° 0 mm 2 mps 737 mmHg 89%

25 January, Monday

Time Temperature Precipitation Wind Pressure Humidity
00:00 -2°C° 0 mm 2 mps 737 mmHg 89%
01:00 -2°C° 0 mm 2 mps 737 mmHg 89%
02:00 -2°C° 0 mm 2 mps 737 mmHg 88%
03:00 -2°C° 0 mm 2 mps 738 mmHg 88%
04:00 -2°C° 0 mm 2 mps 738 mmHg 87%
05:00 -3°C° 0 mm 2 mps 738 mmHg 87%
06:00 -3°C° 0 mm 2 mps 739 mmHg 88%
07:00 -3°C° 0 mm 2 mps 739 mmHg 88%
08:00 -2°C° 0 mm 2 mps 740 mmHg 85%
09:00 -2°C° 0 mm 3 mps 740 mmHg 81%
10:00 -1°C° 0 mm 3 mps 741 mmHg 78%
11:00 -1°C° 0 mm 4 mps 741 mmHg 72%
12:00 -1°C° 0 mm 4 mps 741 mmHg 66%
13:00 0°C° 0 mm 4 mps 741 mmHg 60%
14:00 0°C° 0 mm 4 mps 741 mmHg 64%
15:00 0°C° 0 mm 3 mps 741 mmHg 68%
16:00 0°C° 0 mm 3 mps 741 mmHg 71%
17:00 -1°C° 0 mm 3 mps 741 mmHg 75%
18:00 -1°C° 0 mm 3 mps 742 mmHg 80%
19:00 -2°C° 0 mm 2 mps 742 mmHg 84%
20:00 -2°C° 0 mm 2 mps 742 mmHg 85%
21:00 -2°C° 0 mm 2 mps 742 mmHg 87%
22:00 -2°C° 0 mm 2 mps 742 mmHg 89%
23:00 -2°C° 0 mm 2 mps 742 mmHg 90%

26 January, Tuesday

Time Temperature Precipitation Wind Pressure Humidity
00:00 -2°C° 0 mm 2 mps 743 mmHg 91%
01:00 -2°C° 0 mm 2 mps 743 mmHg 93%
02:00 -2°C° 0.1 mm 2 mps 743 mmHg 93%
03:00 0°C° 0.1 mm 1 mps 743 mmHg 93%
04:00 0°C° 0.1 mm 1 mps 743 mmHg 93%
05:00 -1°C° 0 mm 1 mps 744 mmHg 94%
06:00 -3°C° 0 mm 2 mps 744 mmHg 94%
07:00 -3°C° 0 mm 2 mps 745 mmHg 94%
08:00 -2°C° 0 mm 2 mps 745 mmHg 89%
09:00 -2°C° 0 mm 3 mps 745 mmHg 85%
10:00 -1°C° 0 mm 3 mps 746 mmHg 81%
11:00 0°C° 0 mm 3 mps 746 mmHg 77%
12:00 -1°C° 0 mm 4 mps 746 mmHg 73%
13:00 0°C° 0 mm 4 mps 746 mmHg 70%
14:00 0°C° 0 mm 4 mps 746 mmHg 72%
15:00 0°C° 0 mm 4 mps 746 mmHg 74%
16:00 0°C° 0 mm 3 mps 746 mmHg 77%
17:00 0°C° 0 mm 3 mps 746 mmHg 81%
18:00 0°C° 0 mm 3 mps 746 mmHg 85%
19:00 -1°C° 0 mm 3 mps 746 mmHg 89%
20:00 -1°C° 0 mm 3 mps 745 mmHg 89%
21:00 -2°C° 0 mm 4 mps 745 mmHg 90%
22:00 -2°C° 0 mm 4 mps 745 mmHg 91%
23:00 -2°C° 0 mm 4 mps 744 mmHg 90%

27 January, Wednesday

Time Temperature Precipitation Wind Pressure Humidity
00:00 -2°C° 0 mm 4 mps 744 mmHg 88%
01:00 -2°C° 0 mm 4 mps 743 mmHg 87%
02:00 -2°C° 0.4 mm 4 mps 742 mmHg 90%
03:00 -2°C° 0.4 mm 4 mps 741 mmHg 94%
04:00 -2°C° 0.4 mm 5 mps 740 mmHg 98%
05:00 -1°C° 0.8 mm 4 mps 739 mmHg 98%
06:00 0°C° 0.8 mm 3 mps 739 mmHg 98%
07:00 +1°C° 0.8 mm 3 mps 739 mmHg 97%
08:00 +1°C° 0.2 mm 3 mps 739 mmHg 97%
09:00 +2°C° 0.2 mm 3 mps 739 mmHg 97%
10:00 +2°C° 0.2 mm 3 mps 740 mmHg 96%
11:00 +2°C° 0.1 mm 3 mps 740 mmHg 96%
12:00 +2°C° 0.1 mm 3 mps 741 mmHg 97%
13:00 +2°C° 0.1 mm 3 mps 741 mmHg 97%
14:00 +2°C° 0 mm 3 mps 742 mmHg 96%
15:00 +2°C° 0 mm 3 mps 743 mmHg 96%
16:00 +1°C° 0 mm 3 mps 744 mmHg 95%
17:00 +1°C° 0 mm 3 mps 744 mmHg 95%
18:00 +2°C° 0 mm 2 mps 745 mmHg 95%
19:00 +2°C° 0 mm 1 mps 746 mmHg 95%
20:00 +2°C° 0.1 mm 2 mps 746 mmHg 96%
21:00 +2°C° 0.1 mm 2 mps 746 mmHg 96%
22:00 +1°C° 0.1 mm 3 mps 747 mmHg 97%
23:00 +1°C° 0 mm 3 mps 746 mmHg 95%
Show more